contact:dominique.lefevre@mio.osupytheas.fr, maurice.libes@osupytheas.fr, didier.mallarino@osupytheas.fr
Project:EMSO http://www.emso-fr.org/EMSO-France
Depth: 2436.0 m
Title:EMSO Ligure Ouest : Data MII capteur MICROCAT
DateTime_Computer,Latitude,Longitude,Temperature,Conductivity,Pressure,DateTime_Instrument
DateTime_Computer,Latitude,Longitude,degC,S m-1,dbar,DateTime_Instrument
2022-12-26T00:00:16Z,42.805,6.029,13.3011,4.60070,2470.661,2022-12-26T02:06:16Z
2022-12-26T00:03:19Z,42.805,6.029,13.3014,4.60091,2470.661,2022-12-26T02:09:19Z
2022-12-26T00:06:22Z,42.805,6.029,13.3011,4.60087,2470.661,2022-12-26T02:12:22Z
2022-12-26T00:09:25Z,42.805,6.029,13.3012,4.60076,2470.661,2022-12-26T02:15:25Z
2022-12-26T00:12:28Z,42.805,6.029,13.3013,4.60078,2470.661,2022-12-26T02:18:28Z
2022-12-26T00:15:32Z,42.805,6.029,13.3016,4.60072,2470.637,2022-12-26T02:21:31Z
2022-12-26T00:18:35Z,42.805,6.029,13.3019,4.60076,2470.646,2022-12-26T02:24:34Z
2022-12-26T00:21:38Z,42.805,6.029,13.3015,4.60079,2470.624,2022-12-26T02:27:37Z
2022-12-26T00:24:41Z,42.805,6.029,13.3018,4.60069,2470.624,2022-12-26T02:30:40Z
2022-12-26T00:27:44Z,42.805,6.029,13.3011,4.60073,2470.624,2022-12-26T02:33:44Z
2022-12-26T00:30:47Z,42.805,6.029,13.3014,4.60082,2470.661,2022-12-26T02:36:47Z
2022-12-26T00:33:50Z,42.805,6.029,13.3015,4.60079,2470.646,2022-12-26T02:39:50Z
2022-12-26T00:36:53Z,42.805,6.029,13.3015,4.60074,2470.624,2022-12-26T02:42:53Z
2022-12-26T00:39:56Z,42.805,6.029,13.3012,4.60085,2470.624,2022-12-26T02:45:56Z
2022-12-26T00:42:59Z,42.805,6.029,13.3013,4.60076,2470.637,2022-12-26T02:48:59Z
2022-12-26T00:46:02Z,42.805,6.029,13.3012,4.60070,2470.624,2022-12-26T02:52:02Z
2022-12-26T00:49:05Z,42.805,6.029,13.3015,4.60076,2470.624,2022-12-26T02:55:05Z
2022-12-26T00:52:09Z,42.805,6.029,13.3015,4.60076,2470.624,2022-12-26T02:58:08Z
2022-12-26T00:55:12Z,42.805,6.029,13.3015,4.60078,2470.661,2022-12-26T03:01:11Z
2022-12-26T00:58:15Z,42.805,6.029,13.3011,4.60077,2470.6,2022-12-26T03:04:14Z
2022-12-26T01:01:18Z,42.805,6.029,13.3017,4.60069,2470.624,2022-12-26T03:07:18Z
2022-12-26T01:04:21Z,42.805,6.029,13.3015,4.60077,2470.6,2022-12-26T03:10:21Z
2022-12-26T01:07:24Z,42.805,6.029,13.3015,4.60075,2470.624,2022-12-26T03:13:24Z
2022-12-26T01:10:27Z,42.805,6.029,13.3015,4.60067,2470.6,2022-12-26T03:16:27Z
2022-12-26T01:13:30Z,42.805,6.029,13.3015,4.60075,2470.6,2022-12-26T03:19:30Z
2022-12-26T01:16:33Z,42.805,6.029,13.3015,4.60072,2470.6,2022-12-26T03:22:33Z
2022-12-26T01:19:36Z,42.805,6.029,13.3015,4.60074,2470.614,2022-12-26T03:25:36Z
2022-12-26T01:22:39Z,42.805,6.029,13.3015,4.60068,2470.624,2022-12-26T03:28:39Z
2022-12-26T01:25:43Z,42.805,6.029,13.3015,4.60081,2470.614,2022-12-26T03:31:42Z
2022-12-26T01:28:46Z,42.805,6.029,13.3014,4.60071,2470.6,2022-12-26T03:34:45Z
2022-12-26T01:31:49Z,42.805,6.029,13.3015,4.60072,2470.577,2022-12-26T03:37:48Z
2022-12-26T01:34:52Z,42.805,6.029,13.3014,4.60073,2470.6,2022-12-26T03:40:51Z
2022-12-26T01:37:55Z,42.805,6.029,13.3014,4.60074,2470.577,2022-12-26T03:43:55Z
2022-12-26T01:40:58Z,42.805,6.029,13.3014,4.60069,2470.6,2022-12-26T03:46:58Z
2022-12-26T01:44:01Z,42.805,6.029,13.3012,4.60074,2470.614,2022-12-26T03:50:01Z
2022-12-26T01:47:04Z,42.805,6.029,13.3014,4.60069,2470.591,2022-12-26T03:53:04Z
2022-12-26T01:50:07Z,42.805,6.029,13.3014,4.60068,2470.614,2022-12-26T03:56:07Z
2022-12-26T01:53:10Z,42.805,6.029,13.3014,4.60069,2470.591,2022-12-26T03:59:10Z
2022-12-26T01:56:13Z,42.805,6.029,13.3013,4.60068,2470.577,2022-12-26T04:02:13Z
2022-12-26T01:59:16Z,42.805,6.029,13.3013,4.60069,2470.614,2022-12-26T04:05:16Z
2022-12-26T02:02:20Z,42.805,6.029,13.3011,4.60070,2470.591,2022-12-26T04:08:19Z
2022-12-26T02:05:23Z,42.805,6.029,13.3011,4.60071,2470.591,2022-12-26T04:11:22Z
2022-12-26T02:08:26Z,42.805,6.029,13.3013,4.60072,2470.591,2022-12-26T04:14:25Z
2022-12-26T02:11:29Z,42.805,6.029,13.3017,4.60074,2470.637,2022-12-26T04:17:29Z
2022-12-26T02:14:32Z,42.805,6.029,13.3015,4.60069,2470.577,2022-12-26T04:20:32Z
2022-12-26T02:17:35Z,42.805,6.029,13.3018,4.60072,2470.567,2022-12-26T04:23:35Z
2022-12-26T02:20:38Z,42.805,6.029,13.3015,4.60069,2470.614,2022-12-26T04:26:38Z
2022-12-26T02:23:41Z,42.805,6.029,13.3010,4.60068,2470.591,2022-12-26T04:29:41Z
2022-12-26T02:26:44Z,42.805,6.029,13.3012,4.60067,2470.577,2022-12-26T04:32:44Z
2022-12-26T02:29:47Z,42.805,6.029,13.3017,4.60069,2470.577,2022-12-26T04:35:47Z
2022-12-26T02:32:50Z,42.805,6.029,13.3014,4.60072,2470.614,2022-12-26T04:38:50Z
2022-12-26T02:35:53Z,42.805,6.029,13.3015,4.60069,2470.6,2022-12-26T04:41:53Z
2022-12-26T02:38:57Z,42.805,6.029,13.3013,4.60070,2470.6,2022-12-26T04:44:56Z
2022-12-26T02:42:00Z,42.805,6.029,13.3011,4.60072,2470.567,2022-12-26T04:47:59Z
2022-12-26T02:45:03Z,42.805,6.029,13.3011,4.60069,2470.577,2022-12-26T04:51:03Z
2022-12-26T02:48:06Z,42.805,6.029,13.3017,4.60071,2470.577,2022-12-26T04:54:06Z
2022-12-26T02:51:09Z,42.805,6.029,13.3014,4.60069,2470.6,2022-12-26T04:57:09Z
2022-12-26T02:54:12Z,42.805,6.029,13.3012,4.60068,2470.614,2022-12-26T05:00:12Z
2022-12-26T02:57:15Z,42.805,6.029,13.3011,4.60068,2470.577,2022-12-26T05:03:15Z
2022-12-26T03:00:18Z,42.805,6.029,13.3015,4.60067,2470.553,2022-12-26T05:06:18Z
2022-12-26T03:03:21Z,42.805,6.029,13.3014,4.60072,2470.577,2022-12-26T05:09:21Z
2022-12-26T03:06:24Z,42.805,6.029,13.3013,4.60067,2470.591,2022-12-26T05:12:24Z
2022-12-26T03:09:27Z,42.805,6.029,13.3017,4.60069,2470.591,2022-12-26T05:15:27Z
2022-12-26T03:12:31Z,42.805,6.029,13.3014,4.60069,2470.591,2022-12-26T05:18:30Z
2022-12-26T03:15:34Z,42.805,6.029,13.3014,4.60069,2470.577,2022-12-26T05:21:33Z
2022-12-26T03:18:37Z,42.805,6.029,13.3014,4.60069,2470.577,2022-12-26T05:24:36Z
2022-12-26T03:21:40Z,42.805,6.029,13.3018,4.60071,2470.614,2022-12-26T05:27:40Z
2022-12-26T03:24:43Z,42.805,6.029,13.3011,4.60067,2470.591,2022-12-26T05:30:43Z
2022-12-26T03:27:46Z,42.805,6.029,13.3015,4.60068,2470.591,2022-12-26T05:33:46Z
2022-12-26T03:30:49Z,42.805,6.029,13.3015,4.60069,2470.577,2022-12-26T05:36:49Z
2022-12-26T03:33:52Z,42.805,6.029,13.3010,4.60068,2470.553,2022-12-26T05:39:52Z
2022-12-26T03:36:55Z,42.805,6.029,13.3016,4.60070,2470.553,2022-12-26T05:42:55Z
2022-12-26T03:39:58Z,42.805,6.029,13.3011,4.60069,2470.591,2022-12-26T05:45:58Z
2022-12-26T03:43:01Z,42.805,6.029,13.3013,4.60069,2470.591,2022-12-26T05:49:01Z
2022-12-26T03:46:04Z,42.805,6.029,13.3014,4.60069,2470.591,2022-12-26T05:52:04Z
2022-12-26T03:49:08Z,42.805,6.029,13.3014,4.60069,2470.577,2022-12-26T05:55:07Z
2022-12-26T03:52:11Z,42.805,6.029,13.3018,4.60072,2470.553,2022-12-26T05:58:10Z
2022-12-26T03:55:14Z,42.805,6.029,13.3015,4.60074,2470.6,2022-12-26T06:01:14Z
2022-12-26T03:58:17Z,42.805,6.029,13.3019,4.60069,2470.553,2022-12-26T06:04:17Z
2022-12-26T04:01:20Z,42.805,6.029,13.3014,4.60068,2470.577,2022-12-26T06:07:20Z
2022-12-26T04:04:23Z,42.805,6.029,13.3015,4.60067,2470.553,2022-12-26T06:10:23Z
2022-12-26T04:07:26Z,42.805,6.029,13.3014,4.60069,2470.577,2022-12-26T06:13:26Z
2022-12-26T04:10:29Z,42.805,6.029,13.3014,4.60068,2470.577,2022-12-26T06:16:29Z
2022-12-26T04:13:32Z,42.805,6.029,13.3015,4.60067,2470.614,2022-12-26T06:19:32Z
2022-12-26T04:16:35Z,42.805,6.029,13.3011,4.60069,2470.614,2022-12-26T06:22:35Z
2022-12-26T04:19:38Z,42.805,6.029,13.3013,4.60067,2470.6,2022-12-26T06:25:38Z
2022-12-26T04:22:42Z,42.805,6.029,13.3017,4.60067,2470.591,2022-12-26T06:28:41Z
2022-12-26T04:25:45Z,42.805,6.029,13.3015,4.60069,2470.586,2022-12-26T06:31:44Z
2022-12-26T04:28:48Z,42.805,6.029,13.3015,4.60069,2470.6,2022-12-26T06:34:47Z
2022-12-26T04:31:51Z,42.805,6.029,13.3014,4.60067,2470.591,2022-12-26T06:37:51Z
2022-12-26T04:34:54Z,42.805,6.029,13.3013,4.60067,2470.614,2022-12-26T06:40:54Z
2022-12-26T04:37:57Z,42.805,6.029,13.3012,4.60067,2470.637,2022-12-26T06:43:57Z
2022-12-26T04:41:00Z,42.805,6.029,13.3015,4.60067,2470.6,2022-12-26T06:47:00Z
2022-12-26T04:44:03Z,42.805,6.029,13.3014,4.60072,2470.614,2022-12-26T06:50:03Z
2022-12-26T04:47:06Z,42.805,6.029,13.3017,4.60072,2470.577,2022-12-26T06:53:06Z
2022-12-26T04:50:09Z,42.805,6.029,13.3014,4.60067,2470.684,2022-12-26T06:56:09Z
2022-12-26T04:53:12Z,42.805,6.029,13.3014,4.60068,2470.577,2022-12-26T06:59:12Z
2022-12-26T04:56:15Z,42.805,6.029,13.3014,4.60067,2470.646,2022-12-26T07:02:15Z
2022-12-26T04:59:19Z,42.805,6.029,13.3014,4.60066,2470.624,2022-12-26T07:05:18Z
2022-12-26T05:02:22Z,42.805,6.029,13.3011,4.60069,2470.6,2022-12-26T07:08:21Z
2022-12-26T05:05:25Z,42.805,6.029,13.3015,4.60068,2470.624,2022-12-26T07:11:25Z
2022-12-26T05:08:28Z,42.805,6.029,13.3015,4.60069,2470.624,2022-12-26T07:14:28Z
2022-12-26T05:11:31Z,42.805,6.029,13.3014,4.60069,2470.624,2022-12-26T07:17:31Z
2022-12-26T05:14:34Z,42.805,6.029,13.3012,4.60068,2470.6,2022-12-26T07:20:34Z
2022-12-26T05:17:37Z,42.805,6.029,13.3019,4.60068,2470.67,2022-12-26T07:23:37Z
2022-12-26T05:20:40Z,42.805,6.029,13.3016,4.60069,2470.646,2022-12-26T07:26:40Z
2022-12-26T05:23:43Z,42.805,6.029,13.3015,4.60067,2470.6,2022-12-26T07:29:43Z
2022-12-26T05:26:46Z,42.805,6.029,13.3017,4.60067,2470.646,2022-12-26T07:32:46Z
2022-12-26T05:29:49Z,42.805,6.029,13.3014,4.60069,2470.661,2022-12-26T07:35:49Z
2022-12-26T05:32:52Z,42.805,6.029,13.3015,4.60069,2470.67,2022-12-26T07:38:52Z
2022-12-26T05:35:56Z,42.805,6.029,13.3015,4.60068,2470.624,2022-12-26T07:41:55Z
2022-12-26T05:38:59Z,42.805,6.029,13.3014,4.60069,2470.67,2022-12-26T07:44:59Z
2022-12-26T05:42:02Z,42.805,6.029,13.3021,4.60070,2470.67,2022-12-26T07:48:02Z
2022-12-26T05:45:05Z,42.805,6.029,13.3020,4.60070,2470.717,2022-12-26T07:51:05Z
2022-12-26T05:48:08Z,42.805,6.029,13.3016,4.60069,2470.67,2022-12-26T07:54:08Z
2022-12-26T05:51:11Z,42.805,6.029,13.3013,4.60068,2470.684,2022-12-26T07:57:11Z
2022-12-26T05:54:14Z,42.805,6.029,13.3015,4.60067,2470.693,2022-12-26T08:00:14Z
2022-12-26T05:57:17Z,42.805,6.029,13.3014,4.60069,2470.67,2022-12-26T08:03:17Z
2022-12-26T06:00:20Z,42.805,6.029,13.3019,4.60068,2470.693,2022-12-26T08:06:20Z
2022-12-26T06:03:23Z,42.805,6.029,13.3016,4.60070,2470.717,2022-12-26T08:09:23Z
2022-12-26T06:06:26Z,42.805,6.029,13.3015,4.60069,2470.67,2022-12-26T08:12:26Z
2022-12-26T06:09:29Z,42.805,6.029,13.3017,4.60070,2470.717,2022-12-26T08:15:29Z
2022-12-26T06:12:33Z,42.805,6.029,13.3018,4.60070,2470.73,2022-12-26T08:18:32Z
2022-12-26T06:15:36Z,42.805,6.029,13.3014,4.60069,2470.73,2022-12-26T08:21:36Z
2022-12-26T06:18:39Z,42.805,6.029,13.3014,4.60069,2470.73,2022-12-26T08:24:39Z
2022-12-26T06:21:42Z,42.805,6.029,13.3016,4.60070,2470.754,2022-12-26T08:27:42Z
2022-12-26T06:24:45Z,42.805,6.029,13.3015,4.60071,2470.73,2022-12-26T08:30:45Z
2022-12-26T06:27:48Z,42.805,6.029,13.3014,4.60069,2470.73,2022-12-26T08:33:48Z
2022-12-26T06:30:51Z,42.805,6.029,13.3015,4.60074,2470.74,2022-12-26T08:36:51Z
2022-12-26T06:33:54Z,42.805,6.029,13.3013,4.60072,2470.74,2022-12-26T08:39:54Z
2022-12-26T06:36:57Z,42.805,6.029,13.3015,4.60067,2470.777,2022-12-26T08:42:57Z
2022-12-26T06:40:00Z,42.805,6.029,13.3016,4.60067,2470.763,2022-12-26T08:46:00Z
2022-12-26T06:43:03Z,42.805,6.029,13.3015,4.60071,2470.777,2022-12-26T08:49:03Z
2022-12-26T06:46:07Z,42.805,6.029,13.3018,4.60073,2470.777,2022-12-26T08:52:06Z
2022-12-26T06:49:10Z,42.805,6.029,13.3014,4.60074,2470.787,2022-12-26T08:55:10Z
2022-12-26T06:52:13Z,42.805,6.029,13.3015,4.60074,2470.763,2022-12-26T08:58:13Z
2022-12-26T06:55:16Z,42.805,6.029,13.3017,4.60071,2470.8,2022-12-26T09:01:16Z
2022-12-26T06:58:19Z,42.805,6.029,13.3012,4.60071,2470.763,2022-12-26T09:04:19Z
2022-12-26T07:01:22Z,42.805,6.029,13.3017,4.60072,2470.754,2022-12-26T09:07:22Z
2022-12-26T07:04:25Z,42.805,6.029,13.3015,4.60073,2470.777,2022-12-26T09:10:25Z
2022-12-26T07:07:28Z,42.805,6.029,13.3017,4.60073,2470.777,2022-12-26T09:13:28Z
2022-12-26T07:10:31Z,42.805,6.029,13.3017,4.60069,2470.81,2022-12-26T09:16:31Z
2022-12-26T07:13:34Z,42.805,6.029,13.3013,4.60067,2470.787,2022-12-26T09:19:34Z
2022-12-26T07:16:37Z,42.805,6.029,13.3015,4.60070,2470.81,2022-12-26T09:22:37Z
2022-12-26T07:19:40Z,42.805,6.029,13.3014,4.60068,2470.773,2022-12-26T09:25:40Z
2022-12-26T07:22:44Z,42.805,6.029,13.3012,4.60069,2470.8,2022-12-26T09:28:43Z
2022-12-26T07:25:47Z,42.805,6.029,13.3016,4.60068,2470.847,2022-12-26T09:31:47Z
2022-12-26T07:28:50Z,42.805,6.029,13.3013,4.60068,2470.833,2022-12-26T09:34:50Z
2022-12-26T07:31:53Z,42.805,6.029,13.3013,4.60068,2470.824,2022-12-26T09:37:53Z
2022-12-26T07:34:56Z,42.805,6.029,13.3014,4.60067,2470.857,2022-12-26T09:40:56Z
2022-12-26T07:37:59Z,42.805,6.029,13.3014,4.60069,2470.833,2022-12-26T09:43:59Z
2022-12-26T07:41:02Z,42.805,6.029,13.3014,4.60075,2470.833,2022-12-26T09:47:02Z
2022-12-26T07:44:05Z,42.805,6.029,13.3017,4.60077,2470.833,2022-12-26T09:50:05Z
2022-12-26T07:47:08Z,42.805,6.029,13.3011,4.60073,2470.81,2022-12-26T09:53:08Z
2022-12-26T07:50:11Z,42.805,6.029,13.3015,4.60074,2470.833,2022-12-26T09:56:11Z
2022-12-26T07:53:14Z,42.805,6.029,13.3012,4.60069,2470.833,2022-12-26T09:59:14Z
2022-12-26T07:56:18Z,42.805,6.029,13.3015,4.60075,2470.81,2022-12-26T10:02:17Z
2022-12-26T07:59:21Z,42.805,6.029,13.3015,4.60074,2470.894,2022-12-26T10:05:21Z
2022-12-26T08:02:24Z,42.805,6.029,13.3014,4.60072,2470.857,2022-12-26T10:08:24Z
2022-12-26T08:05:27Z,42.805,6.029,13.3018,4.60070,2470.833,2022-12-26T10:11:27Z
2022-12-26T08:08:30Z,42.805,6.029,13.3014,4.60076,2470.88,2022-12-26T10:14:30Z
2022-12-26T08:11:33Z,42.805,6.029,13.3016,4.60072,2470.857,2022-12-26T10:17:33Z
2022-12-26T08:14:36Z,42.805,6.029,13.3015,4.60072,2470.857,2022-12-26T10:20:36Z
2022-12-26T08:17:39Z,42.805,6.029,13.3016,4.60070,2470.857,2022-12-26T10:23:39Z
2022-12-26T08:20:42Z,42.805,6.029,13.3014,4.60074,2470.871,2022-12-26T10:26:42Z
2022-12-26T08:23:45Z,42.805,6.029,13.3014,4.60070,2470.857,2022-12-26T10:29:45Z
2022-12-26T08:26:48Z,42.805,6.029,13.3015,4.60069,2470.88,2022-12-26T10:32:48Z
2022-12-26T08:29:52Z,42.805,6.029,13.3019,4.60070,2470.857,2022-12-26T10:35:51Z
2022-12-26T08:32:55Z,42.805,6.029,13.3015,4.60072,2470.88,2022-12-26T10:38:55Z
2022-12-26T08:35:58Z,42.805,6.029,13.3012,4.60070,2470.88,2022-12-26T10:41:58Z
2022-12-26T08:39:01Z,42.805,6.029,13.3015,4.60073,2470.88,2022-12-26T10:45:01Z
2022-12-26T08:42:04Z,42.805,6.029,13.3014,4.60072,2470.904,2022-12-26T10:48:04Z
2022-12-26T08:45:07Z,42.805,6.029,13.3017,4.60069,2470.857,2022-12-26T10:51:07Z
2022-12-26T08:48:10Z,42.805,6.029,13.3014,4.60074,2470.894,2022-12-26T10:54:10Z
2022-12-26T08:51:13Z,42.805,6.029,13.3014,4.60070,2470.894,2022-12-26T10:57:13Z
2022-12-26T08:54:16Z,42.805,6.029,13.3015,4.60068,2470.904,2022-12-26T11:00:16Z
2022-12-26T08:57:19Z,42.805,6.029,13.3017,4.60068,2470.894,2022-12-26T11:03:19Z
2022-12-26T09:00:22Z,42.805,6.029,13.3015,4.60074,2470.894,2022-12-26T11:06:22Z
2022-12-26T09:03:25Z,42.805,6.029,13.3015,4.60069,2470.894,2022-12-26T11:09:25Z
2022-12-26T09:06:29Z,42.805,6.029,13.3014,4.60072,2470.857,2022-12-26T11:12:29Z
2022-12-26T09:09:32Z,42.805,6.029,13.3015,4.60072,2470.857,2022-12-26T11:15:32Z
2022-12-26T09:12:35Z,42.805,6.029,13.3017,4.60075,2470.894,2022-12-26T11:18:35Z
2022-12-26T09:15:38Z,42.805,6.029,13.3016,4.60078,2470.904,2022-12-26T11:21:38Z
2022-12-26T09:18:41Z,42.805,6.029,13.3015,4.60069,2470.917,2022-12-26T11:24:41Z
2022-12-26T09:21:44Z,42.805,6.029,13.3015,4.60071,2470.866,2022-12-26T11:27:44Z
2022-12-26T09:24:47Z,42.805,6.029,13.3014,4.60071,2470.917,2022-12-26T11:30:47Z
2022-12-26T09:27:50Z,42.805,6.029,13.3019,4.60070,2470.894,2022-12-26T11:33:50Z
2022-12-26T09:30:53Z,42.805,6.029,13.3018,4.60072,2470.927,2022-12-26T11:36:53Z
2022-12-26T09:33:56Z,42.805,6.029,13.3016,4.60073,2470.904,2022-12-26T11:39:56Z
2022-12-26T09:36:59Z,42.805,6.029,13.3015,4.60070,2470.904,2022-12-26T11:42:59Z
2022-12-26T09:40:03Z,42.805,6.029,13.3014,4.60072,2470.894,2022-12-26T11:46:03Z
2022-12-26T09:43:06Z,42.805,6.029,13.3014,4.60069,2470.857,2022-12-26T11:49:06Z
2022-12-26T09:46:09Z,42.805,6.029,13.3017,4.60067,2470.894,2022-12-26T11:52:09Z
2022-12-26T09:49:12Z,42.805,6.029,13.3016,4.60069,2470.904,2022-12-26T11:55:12Z
2022-12-26T09:52:15Z,42.805,6.029,13.3015,4.60069,2470.904,2022-12-26T11:58:15Z
2022-12-26T09:55:18Z,42.805,6.029,13.3017,4.60070,2470.88,2022-12-26T12:01:18Z
2022-12-26T09:58:21Z,42.805,6.029,13.3015,4.60071,2470.94,2022-12-26T12:04:21Z
2022-12-26T10:01:24Z,42.805,6.029,13.3011,4.60074,2470.88,2022-12-26T12:07:24Z
2022-12-26T10:04:27Z,42.805,6.029,13.3013,4.60069,2470.904,2022-12-26T12:10:27Z
2022-12-26T10:07:30Z,42.805,6.029,13.3015,4.60070,2470.88,2022-12-26T12:13:30Z
2022-12-26T10:10:33Z,42.805,6.029,13.3019,4.60069,2470.894,2022-12-26T12:16:33Z
2022-12-26T10:13:36Z,42.805,6.029,13.3016,4.60067,2470.904,2022-12-26T12:19:36Z
2022-12-26T10:16:40Z,42.805,6.029,13.3019,4.60072,2470.88,2022-12-26T12:22:40Z
2022-12-26T10:19:43Z,42.805,6.029,13.3017,4.60067,2470.88,2022-12-26T12:25:43Z
2022-12-26T10:22:46Z,42.805,6.029,13.3013,4.60069,2470.871,2022-12-26T12:28:46Z
2022-12-26T10:25:49Z,42.805,6.029,13.3014,4.60069,2470.894,2022-12-26T12:31:49Z
2022-12-26T10:28:52Z,42.805,6.029,13.3016,4.60068,2470.894,2022-12-26T12:34:52Z
2022-12-26T10:31:55Z,42.805,6.029,13.3015,4.60068,2470.904,2022-12-26T12:37:55Z
2022-12-26T10:34:58Z,42.805,6.029,13.3015,4.60068,2470.857,2022-12-26T12:40:58Z
2022-12-26T10:38:01Z,42.805,6.029,13.3013,4.60068,2470.894,2022-12-26T12:44:01Z
2022-12-26T10:41:04Z,42.805,6.029,13.3011,4.60072,2470.857,2022-12-26T12:47:04Z
2022-12-26T10:44:07Z,42.805,6.029,13.3015,4.60070,2470.894,2022-12-26T12:50:07Z
2022-12-26T10:47:10Z,42.805,6.029,13.3019,4.60080,2470.894,2022-12-26T12:53:10Z
2022-12-26T10:50:14Z,42.805,6.029,13.3016,4.60073,2470.871,2022-12-26T12:56:14Z
2022-12-26T10:53:17Z,42.805,6.029,13.3019,4.60072,2470.88,2022-12-26T12:59:17Z
2022-12-26T10:56:20Z,42.805,6.029,13.3012,4.60070,2470.917,2022-12-26T13:02:20Z
2022-12-26T10:59:23Z,42.805,6.029,13.3019,4.60069,2470.81,2022-12-26T13:05:23Z
2022-12-26T11:02:26Z,42.805,6.029,13.3018,4.60074,2470.847,2022-12-26T13:08:26Z
2022-12-26T11:05:29Z,42.805,6.029,13.3016,4.60069,2470.857,2022-12-26T13:11:29Z
2022-12-26T11:08:32Z,42.805,6.029,13.3014,4.60069,2470.857,2022-12-26T13:14:32Z
2022-12-26T11:11:35Z,42.805,6.029,13.3018,4.60069,2470.88,2022-12-26T13:17:35Z
2022-12-26T11:14:38Z,42.805,6.029,13.3014,4.60069,2470.847,2022-12-26T13:20:38Z
2022-12-26T11:17:41Z,42.805,6.029,13.3019,4.60070,2470.894,2022-12-26T13:23:41Z
2022-12-26T11:20:44Z,42.805,6.029,13.3014,4.60074,2470.88,2022-12-26T13:26:45Z
2022-12-26T11:23:48Z,42.805,6.029,13.3014,4.60072,2470.871,2022-12-26T13:29:48Z
2022-12-26T11:26:51Z,42.805,6.029,13.3014,4.60074,2470.847,2022-12-26T13:32:51Z
2022-12-26T11:29:54Z,42.805,6.029,13.3015,4.60067,2470.857,2022-12-26T13:35:54Z
2022-12-26T11:32:57Z,42.805,6.029,13.3016,4.60067,2470.833,2022-12-26T13:38:57Z
2022-12-26T11:36:00Z,42.805,6.029,13.3014,4.60080,2470.857,2022-12-26T13:42:00Z
2022-12-26T11:39:03Z,42.805,6.029,13.3019,4.60069,2470.81,2022-12-26T13:45:03Z
2022-12-26T11:42:06Z,42.805,6.029,13.3015,4.60072,2470.857,2022-12-26T13:48:06Z
2022-12-26T11:45:09Z,42.805,6.029,13.3016,4.60069,2470.833,2022-12-26T13:51:09Z
2022-12-26T11:48:12Z,42.805,6.029,13.3017,4.60075,2470.833,2022-12-26T13:54:12Z
2022-12-26T11:51:15Z,42.805,6.029,13.3019,4.60069,2470.81,2022-12-26T13:57:15Z
2022-12-26T11:54:18Z,42.805,6.029,13.3019,4.60068,2470.81,2022-12-26T14:00:18Z
2022-12-26T11:57:21Z,42.805,6.029,13.3023,4.60072,2470.833,2022-12-26T14:03:22Z
2022-12-26T12:00:25Z,42.805,6.029,13.3021,4.60069,2470.847,2022-12-26T14:06:25Z
2022-12-26T12:03:28Z,42.805,6.029,13.3021,4.60084,2470.847,2022-12-26T14:09:28Z
2022-12-26T12:06:31Z,42.805,6.029,13.3013,4.60077,2470.833,2022-12-26T14:12:31Z
2022-12-26T12:09:34Z,42.805,6.029,13.3017,4.60069,2470.81,2022-12-26T14:15:34Z
2022-12-26T12:12:37Z,42.805,6.029,13.3015,4.60068,2470.833,2022-12-26T14:18:37Z
2022-12-26T12:15:40Z,42.805,6.029,13.3019,4.60067,2470.824,2022-12-26T14:21:40Z
2022-12-26T12:18:43Z,42.805,6.029,13.3019,4.60068,2470.871,2022-12-26T14:24:43Z
2022-12-26T12:21:46Z,42.805,6.029,13.3021,4.60072,2470.847,2022-12-26T14:27:46Z
2022-12-26T12:24:49Z,42.805,6.029,13.3020,4.60071,2470.787,2022-12-26T14:30:49Z
2022-12-26T12:27:52Z,42.805,6.029,13.3015,4.60070,2470.763,2022-12-26T14:33:52Z
2022-12-26T12:30:55Z,42.805,6.029,13.3017,4.60076,2470.81,2022-12-26T14:36:56Z
2022-12-26T12:33:59Z,42.805,6.029,13.3014,4.60074,2470.8,2022-12-26T14:39:59Z
2022-12-26T12:37:02Z,42.805,6.029,13.3018,4.60072,2470.777,2022-12-26T14:43:02Z
2022-12-26T12:40:05Z,42.805,6.029,13.3013,4.60070,2470.787,2022-12-26T14:46:05Z
2022-12-26T12:43:08Z,42.805,6.029,13.3016,4.60069,2470.777,2022-12-26T14:49:08Z
2022-12-26T12:46:11Z,42.805,6.029,13.3016,4.60074,2470.74,2022-12-26T14:52:11Z
2022-12-26T12:49:14Z,42.805,6.029,13.3017,4.60068,2470.787,2022-12-26T14:55:14Z
2022-12-26T12:52:17Z,42.805,6.029,13.3011,4.60067,2470.8,2022-12-26T14:58:17Z
2022-12-26T12:55:20Z,42.805,6.029,13.3015,4.60069,2470.787,2022-12-26T15:01:20Z
2022-12-26T12:58:23Z,42.805,6.029,13.3016,4.60070,2470.777,2022-12-26T15:04:23Z
2022-12-26T13:01:26Z,42.805,6.029,13.3015,4.60069,2470.754,2022-12-26T15:07:26Z
2022-12-26T13:04:29Z,42.805,6.029,13.3019,4.60068,2470.763,2022-12-26T15:10:30Z
2022-12-26T13:07:33Z,42.805,6.029,13.3015,4.60068,2470.787,2022-12-26T15:13:33Z
2022-12-26T13:10:36Z,42.805,6.029,13.3018,4.60079,2470.763,2022-12-26T15:16:36Z
2022-12-26T13:13:39Z,42.805,6.029,13.3015,4.60069,2470.763,2022-12-26T15:19:39Z
2022-12-26T13:16:42Z,42.805,6.029,13.3020,4.60073,2470.74,2022-12-26T15:22:42Z
2022-12-26T13:19:45Z,42.805,6.029,13.3017,4.60068,2470.777,2022-12-26T15:25:45Z
2022-12-26T13:22:48Z,42.805,6.029,13.3015,4.60073,2470.763,2022-12-26T15:28:48Z
2022-12-26T13:25:51Z,42.805,6.029,13.3017,4.60068,2470.763,2022-12-26T15:31:51Z
2022-12-26T13:28:54Z,42.805,6.029,13.3019,4.60069,2470.763,2022-12-26T15:34:54Z
2022-12-26T13:31:57Z,42.805,6.029,13.3014,4.60072,2470.717,2022-12-26T15:37:57Z
2022-12-26T13:35:00Z,42.805,6.029,13.3015,4.60069,2470.787,2022-12-26T15:41:00Z
2022-12-26T13:38:03Z,42.805,6.029,13.3019,4.60073,2470.754,2022-12-26T15:44:04Z
2022-12-26T13:41:07Z,42.805,6.029,13.3016,4.60070,2470.74,2022-12-26T15:47:07Z
2022-12-26T13:44:10Z,42.805,6.029,13.3017,4.60069,2470.717,2022-12-26T15:50:10Z
2022-12-26T13:47:13Z,42.805,6.029,13.3017,4.60070,2470.74,2022-12-26T15:53:13Z
2022-12-26T13:50:16Z,42.805,6.029,13.3018,4.60071,2470.74,2022-12-26T15:56:16Z
2022-12-26T13:53:19Z,42.805,6.029,13.3023,4.60072,2470.754,2022-12-26T15:59:19Z
2022-12-26T13:56:22Z,42.805,6.029,13.3017,4.60081,2470.717,2022-12-26T16:02:22Z
2022-12-26T13:59:25Z,42.805,6.029,13.3020,4.60077,2470.717,2022-12-26T16:05:25Z
2022-12-26T14:02:28Z,42.805,6.029,13.3017,4.60068,2470.754,2022-12-26T16:08:28Z
2022-12-26T14:05:31Z,42.805,6.029,13.3023,4.60070,2470.74,2022-12-26T16:11:31Z
2022-12-26T14:08:34Z,42.805,6.029,13.3017,4.60074,2470.693,2022-12-26T16:14:34Z
2022-12-26T14:11:37Z,42.805,6.029,13.3016,4.60070,2470.73,2022-12-26T16:17:38Z
2022-12-26T14:14:40Z,42.805,6.029,13.3015,4.60069,2470.74,2022-12-26T16:20:41Z
2022-12-26T14:17:44Z,42.805,6.029,13.3020,4.60069,2470.707,2022-12-26T16:23:44Z
2022-12-26T14:20:47Z,42.805,6.029,13.3017,4.60072,2470.717,2022-12-26T16:26:47Z
2022-12-26T14:23:50Z,42.805,6.029,13.3019,4.60069,2470.707,2022-12-26T16:29:50Z
2022-12-26T14:26:53Z,42.805,6.029,13.3018,4.60073,2470.717,2022-12-26T16:32:53Z
2022-12-26T14:29:56Z,42.805,6.029,13.3014,4.60079,2470.717,2022-12-26T16:35:56Z
2022-12-26T14:32:59Z,42.805,6.029,13.3019,4.60069,2470.717,2022-12-26T16:38:59Z
2022-12-26T14:36:02Z,42.805,6.029,13.3019,4.60066,2470.74,2022-12-26T16:42:02Z
2022-12-26T14:39:05Z,42.805,6.029,13.3014,4.60069,2470.684,2022-12-26T16:45:05Z
2022-12-26T14:42:08Z,42.805,6.029,13.3014,4.60072,2470.717,2022-12-26T16:48:08Z
2022-12-26T14:45:11Z,42.805,6.029,13.3015,4.60069,2470.67,2022-12-26T16:51:12Z
2022-12-26T14:48:14Z,42.805,6.029,13.3018,4.60071,2470.707,2022-12-26T16:54:15Z
2022-12-26T14:51:18Z,42.805,6.029,13.3015,4.60071,2470.693,2022-12-26T16:57:18Z
2022-12-26T14:54:21Z,42.805,6.029,13.3016,4.60071,2470.693,2022-12-26T17:00:21Z
2022-12-26T14:57:24Z,42.805,6.029,13.3018,4.60065,2470.684,2022-12-26T17:03:24Z
2022-12-26T15:00:27Z,42.805,6.029,13.3012,4.60068,2470.67,2022-12-26T17:06:27Z